Location: Yellowknife
(62.4500°N, 114.3500°W)
Time: 10:28:03
(UTC-07:00)

Amateur Radio Satellites - All Passes

Search period start: 24 January 2017 09:58
Search period end: 25 January 2017 09:58
Location: Yellowknife, 62.4500°N, 114.3500°W

Satellite Date Start Highest point End Downlink Frequencies (MHz)
Time Altitude Azimuth
ZACube-1 24 Jan 10:00:36 10:04:59 78° 107° (ESE) 10:09:28 437.345
HO-68 24 Jan 10:01:11 10:08:19 66° 303° (WNW) 10:15:24 435.675
DUCHIFAT 1 24 Jan 10:02:53 10:06:40 35° 57° (ENE) 10:10:29 145.980
SO-50 24 Jan 10:09:00 10:13:41 88° 152° (SSE) 10:18:17 436.795
NANOSAT C BR1 24 Jan 10:10:38 10:14:33 41° 60° (ENE) 10:18:31 145.865
JAS-2 24 Jan 10:15:20 10:21:08 90° 37° (NE) 10:27:46 435.910
NOAA 15 24 Jan 10:19:53 10:23:34 19° 326° (NW) 10:27:13 137.62
BUGSAT 1 24 Jan 10:19:53 10:23:11 25° 52° (NE) 10:26:29 437.445
Oscar 19 24 Jan 10:21:32 10:25:18 21° 38° (NE) 10:29:02 437.125/150
PCSat 24 Jan 10:24:17 10:27:17 15° 253° (WSW) 10:30:17 145.827
DELFI C3 24 Jan 10:26:07 10:30:04 51° 101° (E) 10:33:58 145.870
PRISM 24 Jan 10:26:28 10:29:06 16° 274° (W) 10:31:45 437.425
Cubesat XI-IV 24 Jan 10:26:56 10:30:31 19° 327° (NNW) 10:34:05 437.490
Oscar 11 24 Jan 10:28:47 10:33:10 77° 291° (WNW) 10:37:33 145.826/435.025
UNISAT 6 24 Jan 10:34:09 10:37:58 31° 266° (W) 10:41:51 437.425
CINEMA 3 24 Jan 10:46:09 10:48:39 16° 318° (NW) 10:51:11 145.822/145.860
TIGRISAT 24 Jan 10:46:21 10:49:59 27° 268° (W) 10:53:41 435.000
O/OREOS (USA 219) 24 Jan 10:48:56 10:52:40 25° 357° (N) 10:56:24 437.305
CUTE 1.7 + AOD 2 24 Jan 10:49:18 10:52:26 20° 313° (NW) 10:55:34 437.475
AO-7 24 Jan 11:01:59 11:08:56 31° 15° (NNE) 11:15:53 29.400- 29.500
ANTELSAT 24 Jan 11:03:26 11:06:39 20° 273° (W) 11:09:55 437.575/2403.000
QB50P1 24 Jan 11:05:30 11:09:43 81° 254° (WSW) 11:13:58 145.935-145.965
NOAA 18 24 Jan 11:07:13 11:10:54 19° 330° (NNW) 11:14:35 137.9125
HUMSAT D 24 Jan 11:07:49 11:12:06 71° 104° (ESE) 11:16:25 437.325/437.525
CUBEBUG 2 24 Jan 11:10:05 11:13:31 24° 310° (NW) 11:17:00 437.445
Gurwin Techsat 1B 24 Jan 11:10:40 11:14:56 25° 42° (NE) 11:19:12 435.225
POLYITAN 1 24 Jan 11:11:10 11:15:22 74° 253° (WSW) 11:19:36 437.675
FUNcube-1 24 Jan 11:11:17 11:15:20 39° 301° (WNW) 11:19:29 145.935
QB50P2 24 Jan 11:12:36 11:16:48 69° 255° (WSW) 11:21:03 145.880/145.840
DANDE 24 Jan 11:14:41 11:20:06 23° 28° (NNE) 11:26:10 436.750
ITAMSAT 1 24 Jan 11:15:50 11:18:34 15° 26° (NNE) 11:21:19 435.822/435.867
COMPASS 1 24 Jan 11:17:45 11:20:51 20° 313° (NW) 11:23:57 437.405
CANX-2 24 Jan 11:20:04 11:22:15 14° 322° (NW) 11:24:26 2200.000
SEEDS 24 Jan 11:21:18 11:24:00 17° 317° (NW) 11:26:41 437.485
CUTE-I 24 Jan 11:22:31 11:24:54 13° 340° (NNW) 11:27:17 437.470
CUSAT 1 24 Jan 11:22:58 11:30:01 34° 41° (NE) 11:37:01 437.405
AAUSAT CUBESAT 2 24 Jan 11:24:21 11:27:30 21° 312° (NW) 11:30:37 437.432
SPROUT 24 Jan 11:25:45 11:26:42 11° 78° (ENE) 11:27:40 437.525
UWE-3 24 Jan 11:28:57 11:32:24 24° 310° (NW) 11:35:55 435.000/436.395/437.385
VELOX 1 24 Jan 11:29:42 11:32:04 14° 82° (E) 11:34:25 145.980
POPSAT HIP 1 24 Jan 11:33:08 11:37:14 52° 258° (WSW) 11:41:22 437.405
Cosmos 2491 24 Jan 11:34:14 11:42:44 49° 56° (NE) 11:51:13 435.465 / 435.565
ESTCUBE 1 24 Jan 11:37:04 11:41:08 31° 93° (E) 11:45:09 437.505/2401.250
ZACube-1 24 Jan 11:37:18 11:40:58 27° 307° (NW) 11:44:42 437.345
DUCHIFAT 1 24 Jan 11:38:11 11:42:16 53° 258° (WSW) 11:46:23 145.980
BY70-1 24 Jan 11:39:19 11:42:29 41° 100° (E) 11:45:29 436.1900
NANOSAT C BR1 24 Jan 11:46:19 11:50:19 43° 261° (W) 11:54:22 145.865
DX 1 24 Jan 11:47:39 11:48:55 11° 79° (E) 11:50:11 434.975-435.025
HO-68 24 Jan 11:49:02 11:55:08 31° 327° (NNW) 12:01:11 435.675
SO-50 24 Jan 11:49:46 11:54:24 67° 360° (N) 11:58:58 436.795
BUGSAT 1 24 Jan 11:54:12 11:58:14 78° 253° (WSW) 12:02:18 437.445
YUBILEINY 24 Jan 11:57:16 12:02:44 18° 61° (ENE) 12:08:11 435.215
Oscar 19 24 Jan 11:58:41 12:03:46 55° 61° (ENE) 12:08:51 437.125/150
NOAA 15 24 Jan 12:00:00 12:01:37 11° 350° (N) 12:03:14 137.62
DELFI C3 24 Jan 12:01:09 12:04:47 33° 302° (WNW) 12:08:24 145.870
JAS-2 24 Jan 12:02:15 12:07:12 28° 275° (W) 12:12:41 435.910
CUBEBUG 1 24 Jan 12:03:36 12:07:32 32° 95° (E) 12:11:25 437.445
Oscar 11 24 Jan 12:05:27 12:08:47 22° 312° (NW) 12:12:06 145.826/435.025
Cubesat XI-IV 24 Jan 12:07:20 12:08:49 11° 351° (N) 12:10:18 437.490
Cosmos 2504 24 Jan 12:19:03 12:22:17 13° 58° (ENE) 12:25:25 435.465 / 435.565
50 SAT 24 Jan 12:28:17 12:31:19 25° 94° (E) 12:34:19 437.505
O/OREOS (USA 219) 24 Jan 12:29:14 12:33:16 31° 22° (NNE) 12:37:19 437.305
AISAT 24 Jan 12:32:01 12:36:08 37° 97° (E) 12:40:13 437.250
QB50P1 24 Jan 12:43:18 12:46:11 18° 274° (W) 12:49:04 145.935-145.965
HUMSAT D 24 Jan 12:43:47 12:47:28 29° 306° (NW) 12:51:10 437.325/437.525
NOAA 18 24 Jan 12:47:44 12:49:47 12° 354° (N) 12:51:51 137.9125
FUNcube-1 24 Jan 12:48:32 12:50:39 13° 322° (NW) 12:52:46 145.935
Gurwin Techsat 1B 24 Jan 12:48:57 12:54:15 72° 65° (ENE) 12:59:34 435.225
POLYITAN 1 24 Jan 12:49:17 12:51:55 16° 275° (W) 12:54:36 437.675
QB50P2 24 Jan 12:50:55 12:53:25 15° 276° (W) 12:55:56 145.880/145.840
ITAMSAT 1 24 Jan 12:52:12 12:56:46 32° 49° (NE) 13:01:20 435.822/435.867
AO-7 24 Jan 12:52:18 13:00:14 49° 42° (NE) 13:08:10 29.400- 29.500
DANDE 24 Jan 12:57:51 13:04:48 43° 52° (NE) 13:12:38 436.750
SPROUT 24 Jan 12:59:34 13:03:43 47° 100° (E) 13:07:51 437.525
CUTE-I 24 Jan 13:01:47 13:03:00 11° 5° (N) 13:04:11 437.470
BRITE-PL 24 Jan 13:04:16 13:06:46 13° 28° (NNE) 13:09:14 437.365/2234.400
VELOX 1 24 Jan 13:05:04 13:09:28 61° 104° (ESE) 13:13:49 145.980
CUSAT 1 24 Jan 13:05:17 13:13:17 72° 66° (ENE) 13:20:59 437.405
BY70-1 24 Jan 13:09:39 13:12:37 30° 301° (WNW) 13:15:26 436.1900
UKube-1 24 Jan 13:11:56 13:15:53 33° 96° (E) 13:19:49 .
POPSAT HIP 1 24 Jan 13:12:31 13:14:01 12° 280° (W) 13:15:32 437.405
ESTCUBE 1 24 Jan 13:13:46 13:18:17 63° 294° (WNW) 13:22:46 437.505/2401.250
ZACube-1 24 Jan 13:15:32 13:16:04 10° 329° (NNW) 13:16:36 437.345
DUCHIFAT 1 24 Jan 13:17:27 13:18:57 12° 280° (W) 13:20:28 145.980
DX 1 24 Jan 13:21:58 13:26:12 48° 101° (E) 13:30:24 434.975-435.025
AIST 1 24 Jan 13:28:50 13:32:43 32° 91° (E) 13:36:35
SO-50 24 Jan 13:30:30 13:35:08 89° 181° (S) 13:39:40 436.795
Cosmos 2491 24 Jan 13:31:29 13:40:14 72° 262° (W) 13:48:59 435.465 / 435.565
BUGSAT 1 24 Jan 13:31:46 13:34:19 16° 274° (W) 13:36:53 437.445
HORYU 2 24 Jan 13:35:11 13:35:24 10° 25° (NNE) 13:35:39 437.375
HO-68 24 Jan 13:35:59 13:41:02 21° 353° (N) 13:46:04 435.675
DELFI C3 24 Jan 13:37:27 13:38:36 11° 324° (NW) 13:39:44 145.870
NOAA 15 24 Jan 13:37:27 13:39:24 12° 14° (NNE) 13:41:23 137.62
Oscar 19 24 Jan 13:38:21 13:43:18 42° 262° (W) 13:48:16 437.125/150
CUBEBUG 1 24 Jan 13:39:48 13:44:06 57° 296° (WNW) 13:48:20 437.445
Cubesat XI-IV 24 Jan 13:44:54 13:46:55 12° 16° (NNE) 13:48:56 437.490
YUBILEINY 24 Jan 13:49:04 13:57:26 50° 87° (E) 14:05:50 435.215
BEESAT 24 Jan 13:51:32 13:53:35 13° 79° (E) 13:55:39 436.000
SWISSCUBE 24 Jan 13:53:22 13:55:53 14° 80° (E) 13:58:23 437.505
50 SAT 24 Jan 14:01:16 14:04:48 54° 294° (WNW) 14:08:16 437.505
Cosmos 2504 24 Jan 14:06:04 14:13:31 39° 84° (E) 14:20:30 435.465 / 435.565
AISAT 24 Jan 14:08:30 14:12:47 50° 298° (WNW) 14:17:02 437.250
O/OREOS (USA 219) 24 Jan 14:08:49 14:13:20 74° 46° (NE) 14:17:52 437.305
TISAT 1 24 Jan 14:11:11 14:15:11 42° 99° (E) 14:19:10 437.305
AO-85 24 Jan 14:12:43 14:16:36 30° 132° (SE) 14:20:16 145.980
HUMSAT D 24 Jan 14:21:05 14:21:55 10° 328° (NNW) 14:22:46 437.325/437.525
GOMX 1 24 Jan 14:21:43 14:24:33 15° 38° (NE) 14:27:18 467.674
NOAA 18 24 Jan 14:25:45 14:28:31 14° 19° (NNE) 14:31:19 137.9125
Gurwin Techsat 1B 24 Jan 14:29:54 14:34:40 33° 267° (W) 14:39:28 435.225
ITAMSAT 1 24 Jan 14:30:42 14:35:54 81° 251° (WSW) 14:41:08 435.822/435.867
SPROUT 24 Jan 14:35:40 14:39:38 39° 302° (WNW) 14:43:36 437.525
CUTE-I 24 Jan 14:37:59 14:41:12 16° 29° (NNE) 14:44:25 437.470
DOVE 4 24 Jan 14:39:03 14:40:09 11° 32° (NNE) 14:41:14 437.250
BRITE-PL 24 Jan 14:39:09 14:43:55 30° 50° (NE) 14:48:29 437.365/2234.400
DANDE 24 Jan 14:40:44 14:48:15 84° 254° (WSW) 14:56:39 436.750
VELOX 1 24 Jan 14:41:48 14:45:46 33° 306° (NW) 14:49:43 145.980
MOZHAYETS 4 24 Jan 14:43:07 14:45:21 13° 79° (E) 14:47:35
AO-7 24 Jan 14:44:19 14:52:44 79° 247° (WSW) 15:01:12 29.400- 29.500
CUSAT 1 24 Jan 14:47:32 14:55:02 47° 269° (W) 15:02:14 437.405
UKube-1 24 Jan 14:47:56 14:52:10 54° 297° (WNW) 14:56:23 .
ESTCUBE 1 24 Jan 14:51:09 14:54:25 20° 317° (NW) 14:57:40 437.505/2401.250
ITUPSAT 1 24 Jan 14:56:29 15:00:48 31° 94° (E) 15:05:06 437.325
DX 1 24 Jan 14:58:19 15:02:23 39° 302° (WNW) 15:06:26 434.975-435.025
LilacSat-2 24 Jan 15:04:22 15:05:24 11° 38° (NE) 15:06:25 437.200
AIST 1 24 Jan 15:05:55 15:10:11 53° 292° (WNW) 15:14:27
HORYU 2 24 Jan 15:07:06 15:10:39 24° 48° (NE) 15:14:13 437.375
SO-50 24 Jan 15:11:08 15:15:20 36° 226° (SW) 15:19:27 436.795
NOAA 15 24 Jan 15:13:34 15:17:34 22° 38° (NE) 15:21:34 137.62
CUBEBUG 1 24 Jan 15:16:48 15:19:39 18° 318° (NW) 15:22:32 437.445
HO-68 24 Jan 15:21:19 15:26:43 24° 19° (NNE) 15:32:07 435.675
Cubesat XI-IV 24 Jan 15:21:19 15:25:23 23° 40° (NE) 15:29:28 437.490
Oscar 19 24 Jan 15:22:31 15:24:05 11° 285° (WNW) 15:25:38 437.125/150
BEESAT 24 Jan 15:27:52 15:32:33 50° 101° (E) 15:37:14 436.000
Cosmos 2491 24 Jan 15:28:50 15:35:44 27° 289° (WNW) 15:42:40 435.465 / 435.565
SWISSCUBE 24 Jan 15:30:00 15:34:46 55° 102° (ESE) 15:39:29 437.505
50 SAT 24 Jan 15:35:27 15:37:20 14° 315° (NW) 15:39:13 437.505
YUBILEINY 24 Jan 15:45:18 15:54:07 68° 293° (WNW) 16:03:00 435.215
AISAT 24 Jan 15:45:42 15:48:27 16° 320° (NW) 15:51:11 437.250
TISAT 1 24 Jan 15:46:56 15:50:54 42° 300° (WNW) 15:54:51 437.305
O/OREOS (USA 219) 24 Jan 15:48:31 15:52:28 30° 248° (WSW) 15:56:24 437.305
AO-85 24 Jan 15:52:19 15:56:42 83° 153° (SSE) 16:00:48 145.980
BEESAT 3 24 Jan 15:56:22 15:59:00 17° 122° (ESE) 16:01:39 437.485
GOMX 1 24 Jan 15:56:55 16:01:43 42° 59° (ENE) 16:06:13 467.674
Cosmos 2504 24 Jan 15:58:04 16:06:26 80° 287° (WNW) 16:14:14 435.465 / 435.565
NOAA 18 24 Jan 16:03:10 16:07:43 28° 42° (NE) 16:12:17 137.9125
CANX-2 24 Jan 16:03:22 16:04:21 11° 32° (NNE) 16:05:19 2200.000
ITAMSAT 1 24 Jan 16:12:11 16:16:11 22° 273° (W) 16:20:13 435.822/435.867
SPROUT 24 Jan 16:12:37 16:14:38 13° 323° (NW) 16:16:38 437.525
DOVE 4 24 Jan 16:12:44 16:16:43 29° 54° (NE) 16:20:31 437.250
CUTE-I 24 Jan 16:15:12 16:20:04 38° 52° (NE) 16:24:58 437.470
BRITE-PL 24 Jan 16:16:20 16:21:59 90° 87° (E) 16:27:20 437.365/2234.400
MOZHAYETS 4 24 Jan 16:19:01 16:23:36 54° 102° (ESE) 16:28:10
VELOX 1 24 Jan 16:19:19 16:21:10 12° 328° (NNW) 16:23:00 145.980
DANDE 24 Jan 16:23:49 16:30:23 33° 276° (W) 16:37:33 436.750
KKS-1 24 Jan 16:24:39 16:28:25 26° 92° (E) 16:32:10 437.445
UKube-1 24 Jan 16:24:39 16:27:28 17° 319° (NW) 16:30:17 .
CUSAT 1 24 Jan 16:30:28 16:35:16 18° 292° (WNW) 16:39:59 437.405
ITUPSAT 1 24 Jan 16:34:14 16:39:01 67° 295° (WNW) 16:43:49 437.325
LilacSat-2 24 Jan 16:35:15 16:38:45 35° 60° (ENE) 16:42:17 437.200
DX 1 24 Jan 16:35:24 16:37:38 14° 325° (NW) 16:39:52 434.975-435.025
AO-7 24 Jan 16:39:39 16:46:50 31° 272° (W) 16:54:04 29.400- 29.500
HORYU 2 24 Jan 16:42:19 16:46:45 86° 73° (ENE) 16:51:14 437.375
AIST 1 24 Jan 16:46:12 16:48:48 15° 316° (NW) 16:51:25
GONETS M04 24 Jan 16:49:40 16:51:59 11° 49° (NE) 16:54:17
BEESAT 2 24 Jan 16:50:51 16:54:01 23° 127° (SE) 16:57:14 435.950
NOAA 15 24 Jan 16:51:20 16:56:33 59° 61° (ENE) 17:01:47 137.62
SO-50 24 Jan 16:53:47 16:54:38 10° 248° (WSW) 16:55:29 436.795
Cubesat XI-IV 24 Jan 16:59:27 17:04:42 62° 62° (ENE) 17:09:59 437.490
M-CUBED/EXP-1 PRIME 24 Jan 17:00:14 17:03:11 26° 103° (ESE) 17:06:01 437.505
STARS 24 Jan 17:04:30 17:08:22 29° 94° (E) 17:12:12 437.465
BEESAT 24 Jan 17:05:49 17:10:21 43° 303° (WNW) 17:14:54 436.000
CUTE 1.7 + AOD 2 24 Jan 17:06:00 17:09:03 19° 46° (NE) 17:12:07 437.475
HO-68 24 Jan 17:06:20 17:12:59 42° 44° (NE) 17:19:38 435.675
CINEMA 3 24 Jan 17:07:12 17:10:39 25° 52° (NE) 17:14:04 145.822/145.860
SWISSCUBE 24 Jan 17:08:01 17:12:30 40° 304° (NW) 17:16:59 437.505
CUBESAT XI-V 24 Jan 17:17:29 17:21:58 41° 97° (E) 17:26:24 437.345
TISAT 1 24 Jan 17:23:31 17:25:39 14° 322° (NW) 17:27:47 437.305
CUBEBUG 2 24 Jan 17:30:42 17:33:23 17° 43° (NE) 17:36:04 437.445
BEESAT 3 24 Jan 17:32:05 17:35:57 57° 144° (SE) 17:39:53 437.485
AUBIESAT-1 24 Jan 17:32:37 17:35:53 41° 108° (ESE) 17:39:03 437.475
FUNcube-1 24 Jan 17:32:38 17:33:55 11° 33° (NNE) 17:35:13 145.935
AO-85 24 Jan 17:33:05 17:37:18 62° 356° (N) 17:41:17 145.980
COMPASS 1 24 Jan 17:33:29 17:36:20 18° 45° (NE) 17:39:11 437.405
GOMX 1 24 Jan 17:34:44 17:39:47 53° 259° (W) 17:44:32 467.674
CANX-2 24 Jan 17:35:20 17:39:02 29° 54° (NE) 17:42:47 2200.000
SEEDS 24 Jan 17:36:45 17:40:04 23° 49° (NE) 17:43:24 437.485
AAUSAT CUBESAT 2 24 Jan 17:39:57 17:42:41 17° 44° (NE) 17:45:24 437.432
NOAA 18 24 Jan 17:42:20 17:47:49 77° 65° (ENE) 17:53:19 137.9125
YUBILEINY 24 Jan 17:45:09 17:52:50 31° 322° (NW) 18:00:31 435.215
UWE-3 24 Jan 17:48:55 17:51:36 17° 43° (NE) 17:54:19 435.000/436.395/437.385
DOVE 4 24 Jan 17:49:29 17:54:11 74° 255° (WSW) 17:58:38 437.250
Cosmos 2504 24 Jan 17:53:47 18:01:03 34° 313° (NW) 18:07:56 435.465 / 435.565
CUTE-I 24 Jan 17:54:39 17:59:57 68° 255° (WSW) 18:05:18 437.470
MOZHAYETS 4 24 Jan 17:56:22 18:00:43 39° 303° (WNW) 18:05:01
BRITE-PL 24 Jan 17:56:25 18:01:05 26° 272° (W) 18:05:36 437.365/2234.400
ZACube-1 24 Jan 17:57:06 17:59:30 15° 40° (NE) 18:01:55 437.345
KKS-1 24 Jan 18:00:59 18:05:25 72° 294° (WNW) 18:09:51 437.445
Cosmos 2499 24 Jan 18:07:03 18:13:06 25° 75° (ENE) 18:18:51 435.465 / 435.565
DANDE 24 Jan 18:08:45 18:11:10 12° 298° (WNW) 18:13:38 436.750
LilacSat-2 24 Jan 18:09:22 18:13:01 44° 261° (W) 18:16:44 437.200
ITUPSAT 1 24 Jan 18:12:33 18:16:12 22° 317° (NW) 18:19:51 437.325
HORYU 2 24 Jan 18:20:27 18:23:54 22° 271° (W) 18:27:23 437.375
Oscar 11 24 Jan 18:23:33 18:26:38 19° 45° (NE) 18:29:45 145.826/435.025
BEESAT 2 24 Jan 18:27:19 18:31:19 71° 148° (SSE) 18:35:22 435.950
NOAA 15 24 Jan 18:31:35 18:36:35 41° 263° (W) 18:41:38 137.62
M-CUBED/EXP-1 PRIME 24 Jan 18:34:34 18:37:57 51° 305° (NW) 18:41:11 437.505
GONETS M04 24 Jan 18:38:28 18:45:52 33° 76° (ENE) 18:53:20
CUTE 1.7 + AOD 2 24 Jan 18:40:01 18:44:16 67° 67° (ENE) 18:48:34 437.475
Cubesat XI-IV 24 Jan 18:40:10 18:45:07 38° 264° (W) 18:50:05 437.490
STARS 24 Jan 18:40:43 18:45:04 63° 295° (WNW) 18:49:24 437.465
CINEMA 3 24 Jan 18:43:14 18:47:29 80° 253° (WSW) 18:51:41 145.822/145.860
BEESAT 24 Jan 18:44:16 18:47:12 16° 325° (NW) 18:50:07 436.000
SWISSCUBE 24 Jan 18:46:30 18:49:16 15° 327° (NNW) 18:52:02 437.505
HO-68 24 Jan 18:53:06 19:00:20 83° 248° (WSW) 19:07:36 435.675
CUBESAT XI-V 24 Jan 18:54:57 18:59:31 50° 298° (WNW) 19:04:02 437.345
HUMSAT D 24 Jan 19:01:16 19:03:21 14° 38° (NE) 19:05:27 437.325/437.525
CUBEBUG 2 24 Jan 19:05:13 19:09:18 58° 65° (ENE) 19:13:27 437.445
FUNcube-1 24 Jan 19:05:21 19:09:04 31° 55° (NE) 19:12:51 145.935
COMPASS 1 24 Jan 19:07:03 19:11:14 62° 66° (ENE) 19:15:26 437.405
AUBIESAT-1 24 Jan 19:07:10 19:10:20 34° 310° (NW) 19:13:23 437.475
BEESAT 3 24 Jan 19:09:38 19:13:36 68° 346° (NNW) 19:17:37 437.485
CANX-2 24 Jan 19:10:22 19:14:39 69° 255° (WSW) 19:18:59 2200.000
SEEDS 24 Jan 19:11:02 19:15:18 85° 71° (ENE) 19:19:37 437.485
AAUSAT CUBESAT 2 24 Jan 19:13:19 19:17:27 58° 65° (ENE) 19:21:36 437.432
AO-85 24 Jan 19:13:50 19:17:59 81° 20° (NNE) 19:21:56 145.980
GOMX 1 24 Jan 19:16:17 19:18:55 14° 280° (W) 19:21:29 467.674
STRAND 1 24 Jan 19:21:43 19:26:12 29° 91° (E) 19:30:40 437.568
UWE-3 24 Jan 19:23:16 19:27:21 57° 65° (ENE) 19:31:32 435.000/436.395/437.385
NOAA 18 24 Jan 19:24:11 19:29:02 31° 267° (W) 19:33:54 137.9125
DOVE 4 24 Jan 19:29:32 19:32:38 17° 275° (W) 19:35:39 437.250
ZACube-1 24 Jan 19:30:56 19:34:57 47° 62° (ENE) 19:39:04 437.345
AIST 2 24 Jan 19:31:32 19:34:54 24° 126° (SE) 19:38:18 435.215
MOZHAYETS 4 24 Jan 19:34:23 19:36:51 14° 325° (NW) 19:39:20
CUTE-I 24 Jan 19:37:22 19:41:02 19° 277° (W) 19:44:43 437.470
KKS-1 24 Jan 19:38:06 19:41:25 21° 315° (NW) 19:44:44 437.445
ESTCUBE 1 24 Jan 19:38:26 19:39:32 11° 27° (NNE) 19:40:38 437.505/2401.250
YUBILEINY 24 Jan 19:46:49 19:53:12 21° 354° (N) 19:59:35 435.215
DELFI C3 24 Jan 19:47:51 19:51:20 28° 55° (NE) 19:54:49 145.870
ITUPSAT 1 24 Jan 19:51:46 19:52:33 10° 341° (NNW) 19:53:21 437.325
Cosmos 2504 24 Jan 19:52:00 19:57:19 19° 344° (NNW) 20:02:25 435.465 / 435.565
Cosmos 2499 24 Jan 19:57:13 20:05:10 72° 99° (E) 20:12:34 435.465 / 435.565
Oscar 11 24 Jan 19:57:50 20:02:08 66° 67° (ENE) 20:06:30 145.826/435.025
CUBEBUG 1 24 Jan 20:02:58 20:03:14 10° 28° (NNE) 20:03:30 437.445
BEESAT 2 24 Jan 20:05:14 20:09:15 63° 352° (N) 20:13:17 435.950
M-CUBED/EXP-1 PRIME 24 Jan 20:09:46 20:11:49 15° 327° (NNW) 20:13:49 437.505
NOAA 15 24 Jan 20:16:36 20:17:54 11° 286° (WNW) 20:19:13 137.62
CUTE 1.7 + AOD 2 24 Jan 20:16:52 20:20:30 27° 269° (W) 20:24:12 437.475
STARS 24 Jan 20:17:41 20:20:46 19° 317° (NW) 20:23:51 437.465
CINEMA 3 24 Jan 20:22:33 20:25:21 17° 275° (W) 20:28:08 145.822/145.860
AISAT 24 Jan 20:31:01 20:32:34 12° 31° (NNE) 20:34:08 437.250
GONETS M04 24 Jan 20:32:58 20:41:44 85° 102° (ESE) 20:50:36
CUBESAT XI-V 24 Jan 20:33:00 20:36:02 17° 321° (NW) 20:39:03 437.345
HUMSAT D 24 Jan 20:34:06 20:38:02 41° 60° (ENE) 20:42:02 437.325/437.525
BY70-1 24 Jan 20:34:23 20:36:19 15° 48° (NE) 20:38:17 436.1900
FUNcube-1 24 Jan 20:41:00 20:45:08 60° 257° (WSW) 20:49:23 145.935
AUBIESAT-1 24 Jan 20:42:35 20:43:58 12° 332° (NNW) 20:45:18 437.475
CUBEBUG 2 24 Jan 20:42:36 20:46:15 29° 267° (W) 20:49:58 437.445
HO-68 24 Jan 20:42:58 20:49:07 30° 272° (W) 20:55:18 435.675
COMPASS 1 24 Jan 20:43:26 20:47:06 28° 268° (W) 20:50:49 437.405
BEESAT 3 24 Jan 20:47:35 20:51:34 64° 10° (N) 20:55:33 437.485
SEEDS 24 Jan 20:48:18 20:51:34 21° 272° (W) 20:54:52 437.485
CANX-2 24 Jan 20:48:44 20:51:20 16° 277° (W) 20:53:57 2200.000
AAUSAT CUBESAT 2 24 Jan 20:49:29 20:53:12 30° 267° (W) 20:56:58 437.432
AO-85 24 Jan 20:54:26 20:58:12 39° 223° (SW) 21:01:51 145.980
SPROUT 24 Jan 20:55:36 20:57:02 12° 34° (NNE) 20:58:28 437.525
UWE-3 24 Jan 21:00:27 21:04:08 30° 267° (W) 21:07:53 435.000/436.395/437.385
STRAND 1 24 Jan 21:00:45 21:05:55 77° 293° (WNW) 21:11:04 437.568
VELOX 1 24 Jan 21:02:40 21:05:16 15° 38° (NE) 21:07:50 145.980
ZACube-1 24 Jan 21:07:31 21:11:25 36° 264° (W) 21:15:23 437.345
ANTELSAT 24 Jan 21:07:44 21:08:21 10° 77° (ENE) 21:08:58 437.575/2403.000
AIST 2 24 Jan 21:08:42 21:12:53 72° 149° (SSE) 21:17:07 435.215
UKube-1 24 Jan 21:09:19 21:10:25 11° 29° (NNE) 21:11:29 .
ESTCUBE 1 24 Jan 21:11:17 21:15:04 26° 50° (NE) 21:18:51 437.505/2401.250
JAS-2 24 Jan 21:12:56 21:15:52 13° 68° (ENE) 21:18:53 435.910
DX 1 24 Jan 21:18:51 21:20:59 13° 35° (NE) 21:23:07 434.975-435.025
DELFI C3 24 Jan 21:21:55 21:25:55 64° 256° (WSW) 21:29:57 145.870
CUBEBUG 1 24 Jan 21:34:39 21:38:16 26° 51° (NE) 21:41:53 437.445
Oscar 11 24 Jan 21:34:56 21:38:40 28° 268° (W) 21:42:27 145.826/435.025
50 SAT 24 Jan 21:41:39 21:43:41 15° 46° (NE) 21:45:44 437.505
BEESAT 2 24 Jan 21:43:19 21:47:22 70° 15° (NNE) 21:51:26 435.950
YUBILEINY 24 Jan 21:46:44 21:53:53 26° 27° (NNE) 22:00:59 435.215
AIST 1 24 Jan 21:47:35 21:48:39 11° 35° (NE) 21:49:44
Cosmos 2504 24 Jan 21:49:12 21:54:21 19° 16° (NNE) 21:59:19 435.465 / 435.565
Cosmos 2499 24 Jan 21:51:22 21:58:52 45° 304° (WNW) 22:05:55 435.465 / 435.565
PRISM 24 Jan 21:54:40 21:58:35 39° 99° (E) 22:02:28 437.425
BY70-1 24 Jan 22:02:41 22:05:57 66° 69° (ENE) 22:09:20 436.1900
AISAT 24 Jan 22:04:01 22:07:54 30° 53° (NE) 22:11:47 437.250
TISAT 1 24 Jan 22:06:20 22:07:18 11° 32° (NNE) 22:08:16 437.305
RS-15 24 Jan 22:07:28 22:16:15 25° 98° (E) 22:25:09 29.354- 29.394
HUMSAT D 24 Jan 22:09:42 22:13:41 43° 262° (W) 22:17:46 437.325/437.525
UNISAT 6 24 Jan 22:13:46 22:17:39 29° 93° (E) 22:21:36 437.425
FUNcube-1 24 Jan 22:20:18 22:22:21 13° 280° (W) 22:24:24 145.935
BEESAT 3 24 Jan 22:25:18 22:29:18 68° 212° (SSW) 22:33:17 437.485
TIGRISAT 24 Jan 22:25:28 22:29:30 33° 95° (E) 22:33:34 435.000
SPROUT 24 Jan 22:28:06 22:31:53 32° 56° (NE) 22:35:42 437.525
GONETS M04 24 Jan 22:31:23 22:39:35 42° 310° (NW) 22:47:54
VELOX 1 24 Jan 22:36:36 22:40:51 45° 60° (ENE) 22:45:06 145.980
AO-85 24 Jan 22:36:57 22:37:34 10° 245° (WSW) 22:38:11 145.980
STRAND 1 24 Jan 22:40:22 22:44:32 26° 316° (NW) 22:48:43 437.568
UKube-1 24 Jan 22:41:35 22:45:16 28° 51° (NE) 22:48:58 .
ANTELSAT 24 Jan 22:41:58 22:46:13 44° 99° (E) 22:50:33 437.575/2403.000
ESTCUBE 1 24 Jan 22:46:54 22:51:28 86° 248° (WSW) 22:56:05 437.505/2401.250
POLYITAN 1 24 Jan 22:47:10 22:47:55 10° 78° (ENE) 22:48:39 437.675
AIST 2 24 Jan 22:47:19 22:51:31 65° 352° (N) 22:55:45 435.215
QB50P2 24 Jan 22:48:08 22:49:26 11° 79° (E) 22:50:43 145.880/145.840
DX 1 24 Jan 22:52:09 22:56:11 37° 57° (ENE) 23:00:14 434.975-435.025
JAS-2 24 Jan 22:56:25 23:02:58 39° 92° (E) 23:10:02 435.910
DELFI C3 24 Jan 22:59:31 23:01:33 13° 278° (W) 23:03:37 145.870
Cosmos 2491 24 Jan 23:02:15 23:04:31 11° 49° (NE) 23:06:47 435.465 / 435.565
ITUPSAT 1 24 Jan 23:02:15 23:04:29 13° 28° (NNE) 23:06:42 437.325
POPSAT HIP 1 24 Jan 23:07:33 23:09:55 14° 83° (E) 23:12:17 437.405
CUBEBUG 1 24 Jan 23:09:46 23:14:11 84° 253° (WSW) 23:18:36 437.445
DUCHIFAT 1 24 Jan 23:11:58 23:14:13 14° 83° (E) 23:16:29 145.980
50 SAT 24 Jan 23:12:44 23:16:16 59° 67° (ENE) 23:19:50 437.505
NANOSAT C BR1 24 Jan 23:19:54 23:22:42 17° 86° (E) 23:25:29 145.865
BEESAT 2 24 Jan 23:21:12 23:25:10 54° 217° (SW) 23:29:08 435.950
AIST 1 24 Jan 23:23:46 23:27:40 32° 60° (ENE) 23:31:32
PRISM 24 Jan 23:30:01 23:33:58 44° 300° (WNW) 23:37:53 437.425
BEESAT 24 Jan 23:32:13 23:35:15 17° 36° (NE) 23:38:16 436.000
BY70-1 24 Jan 23:34:00 23:36:30 20° 269° (W) 23:39:04 436.1900
PCSat 24 Jan 23:34:09 23:37:10 15° 107° (ESE) 23:40:12 145.827
SWISSCUBE 24 Jan 23:34:09 23:37:21 18° 38° (NE) 23:40:33 437.505
TISAT 1 24 Jan 23:38:13 23:41:50 29° 54° (NE) 23:45:29 437.305
AISAT 24 Jan 23:39:42 23:44:08 69° 254° (WSW) 23:48:34 437.250
Cosmos 2504 24 Jan 23:43:47 23:50:36 34° 46° (NE) 23:57:04 435.465 / 435.565
YUBILEINY 24 Jan 23:44:36 23:53:13 51° 57° (ENE) 00:01:44 435.215
Cosmos 2499 24 Jan 23:48:38 23:54:14 21° 332° (NNW) 23:59:37 435.465 / 435.565
UNISAT 6 24 Jan 23:50:21 23:54:45 66° 293° (WNW) 23:59:13 437.425
TIGRISAT 25 Jan 00:02:07 00:06:27 58° 296° (WNW) 00:10:53 435.000
BEESAT 3 25 Jan 00:03:18 00:06:24 22° 234° (SW) 00:09:30 437.485
SPROUT 25 Jan 00:03:27 00:07:40 60° 257° (WSW) 00:11:54 437.525
VELOX 1 25 Jan 00:13:10 00:17:24 42° 261° (W) 00:21:39 145.980
ISS 25 Jan 00:13:30 00:15:05 13° 179° (S) 00:16:40 145.825
RS-15 25 Jan 00:14:25 00:26:03 57° 127° (SE) 00:37:57 29.354- 29.394
QB50P1 25 Jan 00:14:53 00:18:54 42° 99° (E) 00:22:57 145.935-145.965
UKube-1 25 Jan 00:16:41 00:21:01 75° 254° (WSW) 00:25:23 .
ANTELSAT 25 Jan 00:18:48 00:23:00 44° 300° (WNW) 00:27:17 437.575/2403.000
STRAND 1 25 Jan 00:20:13 00:22:16 12° 339° (NNW) 00:24:20 437.568
MOZHAYETS 4 25 Jan 00:20:19 00:22:54 15° 36° (NE) 00:25:28
POLYITAN 1 25 Jan 00:20:41 00:24:48 46° 100° (E) 00:28:54 437.675
QB50P2 25 Jan 00:22:08 00:26:16 50° 101° (E) 00:30:24 145.880/145.840
ESTCUBE 1 25 Jan 00:25:32 00:28:58 21° 273° (W) 00:32:25 437.505/2401.250
KKS-1 25 Jan 00:25:51 00:25:59 10° 25° (NNE) 00:26:08 437.445
AIST 2 25 Jan 00:26:05 00:30:20 71° 15° (NNE) 00:34:36 435.215
DX 1 25 Jan 00:28:03 00:32:20 52° 258° (WSW) 00:36:37 434.975-435.025
GONETS M04 25 Jan 00:32:39 00:39:22 23° 341° (NNW) 00:46:08
ITUPSAT 1 25 Jan 00:36:54 00:41:07 32° 51° (NE) 00:45:21 437.325
JAS-2 25 Jan 00:41:36 00:48:35 81° 293° (WNW) 00:56:16 435.910
CUSAT 1 25 Jan 00:42:07 00:44:42 12° 60° (ENE) 00:47:25 437.405
POPSAT HIP 1 25 Jan 00:42:19 00:46:32 65° 105° (ESE) 00:50:45 437.405
DUCHIFAT 1 25 Jan 00:46:34 00:50:46 63° 104° (ESE) 00:54:57 145.980
50 SAT 25 Jan 00:46:49 00:49:47 24° 267° (W) 00:52:45 437.505
CUBEBUG 1 25 Jan 00:47:58 00:51:08 19° 273° (W) 00:54:20 437.445
M-CUBED/EXP-1 PRIME 25 Jan 00:49:01 00:51:24 16° 35° (NE) 00:53:41 437.505
Cosmos 2491 25 Jan 00:51:02 00:58:26 33° 76° (ENE) 01:05:52 435.465 / 435.565
NANOSAT C BR1 25 Jan 00:54:54 00:59:08 77° 108° (ESE) 01:03:22 145.865
Gurwin Techsat 1B 25 Jan 00:55:05 00:57:35 13° 77° (ENE) 01:00:05 435.225
BEESAT 2 25 Jan 00:59:39 01:02:16 17° 238° (WSW) 01:04:53 435.950
BUGSAT 1 25 Jan 01:00:14 01:04:04 39° 98° (E) 01:07:54 437.445
AIST 1 25 Jan 01:01:20 01:05:32 55° 262° (W) 01:09:42
STARS 25 Jan 01:04:03 01:04:40 10° 27° (NNE) 01:05:17 437.465
PRISM 25 Jan 01:06:14 01:08:25 14° 322° (NW) 01:10:36 437.425
BEESAT 25 Jan 01:07:33 01:12:06 46° 58° (ENE) 01:16:41 436.000
SWISSCUBE 25 Jan 01:09:40 01:14:17 50° 60° (ENE) 01:18:56 437.505
TISAT 1 25 Jan 01:13:07 01:17:16 65° 255° (WSW) 01:21:26 437.305
PCSat 25 Jan 01:14:15 01:19:27 48° 130° (SE) 01:24:41 145.827
AISAT 25 Jan 01:18:41 01:21:26 16° 276° (W) 01:24:12 437.250
CUBESAT XI-V 25 Jan 01:20:32 01:22:41 13° 32° (NNE) 01:24:49 437.345
AUBIESAT-1 25 Jan 01:20:36 01:23:24 20° 40° (NE) 01:26:05 437.475
UNISAT 6 25 Jan 01:27:41 01:30:51 20° 315° (NW) 01:34:03 437.425
Cosmos 2504 25 Jan 01:37:32 01:45:09 85° 74° (ENE) 01:52:22 435.465 / 435.565
Oscar 19 25 Jan 01:38:12 01:42:55 34° 94° (E) 01:47:35 437.125/150
TIGRISAT 25 Jan 01:39:30 01:42:27 18° 317° (NW) 01:45:26 435.000
YUBILEINY 25 Jan 01:41:49 01:50:35 69° 264° (W) 01:59:16 435.215
SPROUT 25 Jan 01:42:24 01:44:31 13° 278° (W) 01:46:38 437.525
Cosmos 2499 25 Jan 01:46:25 01:50:50 16° 4° (N) 01:55:08 435.465 / 435.565
QB50P1 25 Jan 01:50:45 01:54:45 42° 300° (WNW) 01:58:46 145.935-145.965
MOZHAYETS 4 25 Jan 01:54:45 01:59:04 41° 58° (ENE) 02:03:26
UKube-1 25 Jan 01:54:56 01:57:49 17° 274° (W) 02:00:41 .
ANTELSAT 25 Jan 01:56:23 01:58:50 15° 322° (NW) 02:01:20 437.575/2403.000
POLYITAN 1 25 Jan 01:56:38 02:00:36 39° 301° (WNW) 02:04:33 437.675
KKS-1 25 Jan 01:57:41 02:01:15 24° 48° (NE) 02:04:50 437.445
QB50P2 25 Jan 01:58:07 02:02:02 37° 302° (WNW) 02:05:56 145.880/145.840
AIST 2 25 Jan 02:04:40 02:08:49 55° 218° (SW) 02:12:59 435.215
DX 1 25 Jan 02:07:51 02:09:34 12° 280° (W) 02:11:16 434.975-435.025
ITUPSAT 1 25 Jan 02:13:53 02:18:40 74° 253° (WSW) 02:23:31 437.325
POPSAT HIP 1 25 Jan 02:18:25 02:22:06 30° 306° (NW) 02:25:48 437.405
CUSAT 1 25 Jan 02:18:33 02:24:25 36° 84° (E) 02:31:15 437.405
M-CUBED/EXP-1 PRIME 25 Jan 02:21:27 02:25:18 50° 55° (NE) 02:28:54 437.505
DANDE 25 Jan 02:21:38 02:24:48 16° 68° (ENE) 02:28:26 436.750
DUCHIFAT 1 25 Jan 02:22:34 02:26:16 30° 305° (NW) 02:29:57 145.980
RS-15 25 Jan 02:25:49 02:38:07 89° 335° (NNW) 02:50:36 29.354- 29.394
JAS-2 25 Jan 02:26:58 02:33:02 35° 316° (NW) 02:39:37 435.910
NANOSAT C BR1 25 Jan 02:31:01 02:34:33 26° 308° (NW) 02:38:04 145.865
ITAMSAT 1 25 Jan 02:32:54 02:36:20 17° 83° (E) 02:39:46 435.822/435.867
GONETS M04 25 Jan 02:33:37 02:40:10 22° 14° (NNE) 02:46:44
Gurwin Techsat 1B 25 Jan 02:33:43 02:38:54 48° 100° (E) 02:44:03 435.225
AO-7 25 Jan 02:33:46 02:39:35 20° 78° (ENE) 02:45:22 29.400- 29.500
BUGSAT 1 25 Jan 02:35:41 02:39:31 42° 299° (WNW) 02:43:22 437.445
STARS 25 Jan 02:36:11 02:39:47 26° 50° (NE) 02:43:23 437.465
AIST 1 25 Jan 02:40:34 02:42:14 12° 284° (WNW) 02:43:53
BEESAT 25 Jan 02:45:22 02:49:58 46° 260° (W) 02:54:36 436.000
Cosmos 2491 25 Jan 02:45:35 02:54:20 85° 103° (ESE) 03:03:09 435.465 / 435.565
SWISSCUBE 25 Jan 02:47:42 02:52:14 42° 262° (W) 02:56:48 437.505
TISAT 1 25 Jan 02:51:28 02:53:44 14° 277° (W) 02:56:02 437.305
AUBIESAT-1 25 Jan 02:53:32 02:57:26 73° 60° (ENE) 03:01:05 437.475
CUBESAT XI-V 25 Jan 02:54:41 02:58:54 33° 54° (NE) 03:03:08 437.345
PCSat 25 Jan 02:57:19 03:02:46 74° 334° (NNW) 03:08:14 145.827
Oscar 19 25 Jan 03:17:29 03:22:39 67° 296° (WNW) 03:27:47 437.125/150
QB50P1 25 Jan 03:27:27 03:29:39 14° 321° (NW) 03:31:50 145.935-145.965
Cosmos 2504 25 Jan 03:31:23 03:37:51 33° 280° (W) 03:44:04 435.465 / 435.565
MOZHAYETS 4 25 Jan 03:31:44 03:36:13 50° 260° (W) 03:40:46
KKS-1 25 Jan 03:32:55 03:37:22 87° 71° (ENE) 03:41:51 437.445
POLYITAN 1 25 Jan 03:33:27 03:35:28 13° 323° (NW) 03:37:28 437.675
STRAND 1 25 Jan 03:34:07 03:36:50 15° 28° (NNE) 03:39:33 437.568
QB50P2 25 Jan 03:35:01 03:36:52 13° 324° (NW) 03:38:43 145.880/145.840
YUBILEINY 25 Jan 03:39:09 03:45:57 26° 290° (WNW) 03:52:42 435.215
Cosmos 2499 25 Jan 03:41:24 03:47:13 24° 35° (NE) 03:52:52 435.465 / 435.565
AIST 2 25 Jan 03:43:47 03:46:36 17° 239° (WSW) 03:49:24 435.215
ITUPSAT 1 25 Jan 03:54:01 03:57:22 19° 275° (W) 04:00:44 437.325
POPSAT HIP 1 25 Jan 03:55:43 03:56:47 11° 328° (NNW) 03:57:51 437.405
M-CUBED/EXP-1 PRIME 25 Jan 03:56:17 03:59:57 33° 254° (WSW) 04:03:24 437.505
CUSAT 1 25 Jan 03:59:10 04:05:45 84° 290° (WNW) 04:13:37 437.405
DUCHIFAT 1 25 Jan 03:59:45 04:00:51 11° 327° (NNW) 04:01:56 145.980
DANDE 25 Jan 04:00:46 04:05:48 51° 94° (E) 04:12:25 436.750
BRITE-PL 25 Jan 04:11:17 04:14:10 15° 78° (ENE) 04:16:57 437.365/2234.400
STARS 25 Jan 04:11:22 04:15:46 85° 254° (WSW) 04:20:10 437.465
ITAMSAT 1 25 Jan 04:11:39 04:16:51 64° 105° (ESE) 04:22:03 435.822/435.867
JAS-2 25 Jan 04:11:59 04:16:28 19° 340° (NNW) 04:21:15 435.910
BUGSAT 1 25 Jan 04:12:06 04:14:03 13° 321° (NW) 04:16:00 437.445
Gurwin Techsat 1B 25 Jan 04:13:49 04:18:58 50° 302° (WNW) 04:24:05 435.225
AO-7 25 Jan 04:26:11 04:34:27 56° 104° (ESE) 04:42:37 29.400- 29.500
BEESAT 25 Jan 04:27:22 04:29:00 12° 282° (WNW) 04:30:39 436.000
AUBIESAT-1 25 Jan 04:29:05 04:32:14 22° 259° (W) 04:35:13 437.475
SWISSCUBE 25 Jan 04:30:37 04:31:22 10° 284° (WNW) 04:32:07 437.505
CUBESAT XI-V 25 Jan 04:31:22 04:36:05 67° 256° (WSW) 04:40:49 437.345
GONETS M04 25 Jan 04:32:10 04:40:14 37° 45° (NE) 04:48:17
RS-15 25 Jan 04:38:59 04:51:26 81° 8° (N) 05:03:50 29.354- 29.394
PCSat 25 Jan 04:41:24 04:46:45 53° 358° (N) 04:52:06 145.827
Cosmos 2491 25 Jan 04:44:03 04:52:13 42° 310° (NW) 05:00:28 435.465 / 435.565
Oscar 19 25 Jan 04:57:15 05:01:18 23° 318° (NW) 05:05:19 437.125/150
Cubesat XI-IV 25 Jan 05:07:16 05:08:45 11° 74° (ENE) 05:10:15 437.490
STRAND 1 25 Jan 05:10:14 05:14:46 33° 51° (NE) 05:19:20 437.568
KKS-1 25 Jan 05:11:05 05:14:32 22° 271° (W) 05:18:00 437.445
MOZHAYETS 4 25 Jan 05:12:40 05:14:32 12° 282° (WNW) 05:16:25
GOMX 1 25 Jan 05:25:42 05:29:15 22° 87° (E) 05:32:39 467.674
Cosmos 2504 25 Jan 05:28:21 05:28:44 10° 307° (NW) 05:29:07 435.465 / 435.565
LilacSat-2 25 Jan 05:32:36 05:34:26 13° 82° (E) 05:36:16 437.200
Cosmos 2499 25 Jan 05:34:59 05:42:10 58° 64° (ENE) 05:49:07 435.465 / 435.565
DOVE 4 25 Jan 05:38:05 05:40:20 14° 82° (E) 05:42:33 437.250
CUSAT 1 25 Jan 05:42:29 05:48:48 37° 316° (NW) 05:55:59 437.405
DANDE 25 Jan 05:43:22 05:48:38 52° 303° (WNW) 05:55:33 436.750
PRISM 25 Jan 05:48:15 05:49:06 11° 31° (NNE) 05:49:56 437.425
BRITE-PL 25 Jan 05:48:50 05:53:50 62° 102° (ESE) 05:58:24 437.365/2234.400
STARS 25 Jan 05:49:36 05:52:47 19° 273° (W) 05:55:59 437.465
ITAMSAT 1 25 Jan 05:51:23 05:56:12 39° 307° (NW) 06:01:00 435.822/435.867
NOAA 18 25 Jan 05:54:07 05:56:59 14° 79° (E) 05:59:50 137.9125
Gurwin Techsat 1B 25 Jan 05:54:15 05:57:58 20° 324° (NW) 06:01:41 435.225
JAS-2 25 Jan 05:55:34 05:59:21 16° 5° (N) 06:03:21 435.910
HORYU 2 25 Jan 05:58:39 06:02:49 37° 97° (E) 06:07:00 437.375
CUTE-I 25 Jan 06:00:32 06:04:48 24° 87° (E) 06:09:04 437.470
HO-68 25 Jan 06:10:08 06:13:08 13° 70° (ENE) 06:16:06 435.675
O/OREOS (USA 219) 25 Jan 06:11:11 06:15:13 34° 114° (ESE) 06:19:16 437.305
CUBESAT XI-V 25 Jan 06:11:21 06:14:22 17° 278° (W) 06:17:24 437.345
AO-7 25 Jan 06:19:15 06:27:32 65° 309° (NW) 06:35:45 29.400- 29.500
PCSat 25 Jan 06:25:20 06:30:47 68° 23° (NNE) 06:36:13 145.827
CINEMA 3 25 Jan 06:27:46 06:29:27 12° 80° (E) 06:31:09 145.822/145.860
GONETS M04 25 Jan 06:29:32 06:38:27 83° 72° (ENE) 06:47:21
NOAA 15 25 Jan 06:34:51 06:39:48 37° 95° (E) 06:44:42 137.62
Oscar 19 25 Jan 06:37:14 06:39:05 12° 342° (NNW) 06:40:55 437.125/150
ANTELSAT 25 Jan 06:42:06 06:43:36 12° 32° (NNE) 06:45:06 437.575/2403.000
Cubesat XI-IV 25 Jan 06:45:17 06:50:22 41° 97° (E) 06:55:25 437.490
Cosmos 2491 25 Jan 06:45:21 06:52:00 23° 341° (NNW) 06:58:42 435.465 / 435.565
CANX-2 25 Jan 06:45:33 06:47:30 13° 80° (E) 06:49:28 2200.000
STRAND 1 25 Jan 06:48:33 06:53:40 76° 252° (WSW) 06:58:51 437.568
RS-15 25 Jan 06:51:57 07:04:18 76° 219° (SW) 07:16:24 29.354- 29.394
GOMX 1 25 Jan 07:03:26 07:08:00 80° 288° (WNW) 07:12:16 467.674
LilacSat-2 25 Jan 07:05:39 07:09:32 63° 104° (ESE) 07:13:23 437.200
DOVE 4 25 Jan 07:14:44 07:18:58 66° 104° (ESE) 07:23:05 437.250
SO-50 25 Jan 07:15:41 07:18:55 19° 121° (ESE) 07:22:09 436.795
PRISM 25 Jan 07:19:41 07:23:16 29° 53° (NE) 07:26:53 437.425
BRITE-PL 25 Jan 07:27:33 07:32:09 36° 305° (NW) 07:36:24 437.365/2234.400
CUSAT 1 25 Jan 07:27:41 07:33:10 22° 343° (NNW) 07:39:03 437.405
DANDE 25 Jan 07:28:25 07:33:12 24° 331° (NNW) 07:38:54 436.750
Cosmos 2499 25 Jan 07:28:25 07:35:19 50° 270° (W) 07:42:02 435.465 / 435.565
ITAMSAT 1 25 Jan 07:31:23 07:34:33 17° 330° (NNW) 07:37:43 435.822/435.867
NOAA 18 25 Jan 07:33:39 07:39:00 51° 102° (ESE) 07:44:19 137.9125
Gurwin Techsat 1B 25 Jan 07:34:40 07:36:12 11° 349° (NNW) 07:37:44 435.225
HORYU 2 25 Jan 07:35:14 07:39:35 51° 298° (WNW) 07:43:54 437.375
JAS-2 25 Jan 07:37:38 07:42:22 24° 31° (NNE) 07:47:32 435.910
CUTE-I 25 Jan 07:40:15 07:45:39 84° 109° (ESE) 07:51:01 437.470
UNISAT 6 25 Jan 07:47:44 07:51:07 23° 48° (NE) 07:54:32 437.425
CUTE 1.7 + AOD 2 25 Jan 07:49:45 07:53:37 31° 93° (E) 07:57:28 437.475
O/OREOS (USA 219) 25 Jan 07:49:57 07:54:26 67° 316° (NW) 07:58:56 437.305
HO-68 25 Jan 07:56:21 08:03:06 41° 95° (E) 08:09:48 435.675
TIGRISAT 25 Jan 07:59:09 08:02:39 25° 50° (NE) 08:06:12 435.000
CINEMA 3 25 Jan 08:03:26 08:07:34 55° 101° (ESE) 08:11:47 145.822/145.860
PCSat 25 Jan 08:08:54 08:14:14 57° 227° (SW) 08:19:32 145.827
QB50P1 25 Jan 08:10:45 08:11:38 11° 32° (NNE) 08:12:33 145.935-145.965
AO-7 25 Jan 08:11:56 08:19:14 35° 334° (NNW) 08:26:31 29.400- 29.500
COMPASS 1 25 Jan 08:14:26 08:18:05 27° 92° (E) 08:21:41 437.405
NOAA 15 25 Jan 08:14:38 08:19:56 64° 297° (WNW) 08:25:11 137.62
ANTELSAT 25 Jan 08:15:24 08:19:13 32° 55° (NE) 08:23:04 437.575/2403.000
Oscar 19 25 Jan 08:16:05 08:16:26 10° 6° (N) 08:16:46 437.125/150
POLYITAN 1 25 Jan 08:16:13 08:17:31 11° 33° (NNE) 08:18:49 437.675
QB50P2 25 Jan 08:17:25 08:18:55 12° 34° (NE) 08:20:26 145.880/145.840
FUNcube-1 25 Jan 08:18:20 08:20:58 15° 83° (E) 08:23:39 145.935
SEEDS 25 Jan 08:19:33 08:23:35 38° 97° (E) 08:27:34 437.485
CANX-2 25 Jan 08:20:04 08:24:21 55° 101° (ESE) 08:28:36 2200.000
AAUSAT CUBESAT 2 25 Jan 08:20:05 08:23:35 25° 90° (E) 08:27:04 437.432
CUBEBUG 2 25 Jan 08:21:10 08:25:00 30° 93° (E) 08:28:56 437.445
Cubesat XI-IV 25 Jan 08:25:27 08:30:42 58° 299° (WNW) 08:35:56 437.490
GONETS M04 25 Jan 08:26:44 08:34:41 40° 279° (W) 08:42:38
STRAND 1 25 Jan 08:29:59 08:33:44 20° 275° (W) 08:37:31 437.568
POPSAT HIP 1 25 Jan 08:36:42 08:38:47 14° 38° (NE) 08:40:54 437.405
UWE-3 25 Jan 08:37:54 08:41:45 29° 93° (E) 08:45:40 435.000/436.395/437.385
LilacSat-2 25 Jan 08:40:17 08:43:36 27° 304° (NW) 08:46:55 437.200
DUCHIFAT 1 25 Jan 08:40:34 08:42:34 13° 38° (NE) 08:44:35 145.980
GOMX 1 25 Jan 08:42:02 08:45:32 22° 314° (NW) 08:48:54 467.674
ZACube-1 25 Jan 08:44:11 08:47:47 24° 90° (E) 08:51:24 437.345
Cosmos 2491 25 Jan 08:46:20 08:52:49 22° 14° (NNE) 08:59:20 435.465 / 435.565
NANOSAT C BR1 25 Jan 08:48:33 08:50:57 15° 40° (NE) 08:53:22 145.865
DELFI C3 25 Jan 08:50:27 08:51:03 10° 79° (E) 08:51:36 145.870
DOVE 4 25 Jan 08:52:48 08:56:28 29° 306° (NW) 09:00:02 437.250
SO-50 25 Jan 08:54:05 08:58:40 56° 143° (SE) 09:03:11 436.795
PRISM 25 Jan 08:54:10 08:58:20 68° 255° (WSW) 09:02:31 437.425
RS-15 25 Jan 09:04:27 09:15:18 39° 248° (WSW) 09:25:56 29.354- 29.394
BRITE-PL 25 Jan 09:06:43 09:09:24 15° 329° (NNW) 09:11:59 437.365/2234.400
Oscar 11 25 Jan 09:10:09 09:14:04 31° 93° (E) 09:17:58 145.826/435.025
ITAMSAT 1 25 Jan 09:11:19 09:12:13 10° 354° (N) 09:13:07 435.822/435.867
Gurwin Techsat 1B 25 Jan 09:12:26 09:14:09 12° 13° (NNE) 09:15:51 435.225
HORYU 2 25 Jan 09:12:28 09:15:20 17° 321° (NW) 09:18:11 437.375
CUSAT 1 25 Jan 09:12:41 09:18:10 20° 10° (N) 09:23:48 437.405
DANDE 25 Jan 09:14:23 09:18:44 18° 359° (N) 09:23:36 436.750
NOAA 18 25 Jan 09:14:29 09:19:45 49° 304° (WNW) 09:24:59 137.9125
JAS-2 25 Jan 09:20:31 09:26:14 53° 56° (NE) 09:32:42 435.910
CUTE-I 25 Jan 09:20:39 09:25:20 32° 312° (NW) 09:30:00 437.470
Cosmos 2499 25 Jan 09:22:45 09:26:41 16° 296° (WNW) 09:30:34 435.465 / 435.565
UNISAT 6 25 Jan 09:23:05 09:27:22 86° 74° (ENE) 09:31:45 437.425
CUTE 1.7 + AOD 2 25 Jan 09:25:29 09:29:45 58° 294° (WNW) 09:33:59 437.475
O/OREOS (USA 219) 25 Jan 09:30:35 09:34:33 30° 340° (NNW) 09:38:32 437.305
TIGRISAT 25 Jan 09:34:42 09:38:59 83° 253° (WSW) 09:43:20 435.000
CINEMA 3 25 Jan 09:40:52 09:44:38 33° 303° (WNW) 09:48:28 145.822/145.860
HUMSAT D 25 Jan 09:42:06 09:45:07 18° 86° (E) 09:48:09 437.325/437.525
QB50P1 25 Jan 09:42:39 09:46:17 29° 54° (NE) 09:49:56 145.935-145.965
POLYITAN 1 25 Jan 09:48:31 09:52:14 31° 55° (NE) 09:55:59 437.675
QB50P2 25 Jan 09:49:54 09:53:41 33° 56° (NE) 09:57:29 145.880/145.840
Oscar 19 25 Jan 09:50:50 09:53:56 16° 31° (NNE) 09:57:02 437.125/150
